CXA1497 ZJSY-ZUGY

Flight info

Callsign CXA1497
Flight time 1h 39m
Altitude 36100
Route PORAP W222 DOBVI W528 ANPIM G221 NYB W70 BHY W159 IVPUB W120 ENKUS R343 MAMSI B330 ELKAL
Aircraft B738/M-SDE2E3FGILRWXY/LB2

Departure

Time 2026-04-27 12:40
Airport Sanya Phoenix International Airport (ZJSY)

Arrival

Time 2026-04-27 14:19
Airport Guiyang Longdongbao International Airport (ZUGY)
Time Latitude Longitude Altitude Speed Heading
2026-04-27 12:02 18.30744 109.40339 100 ft 0 kts 352°
2026-04-27 12:28 18.30735 109.40340 100 ft 2 kts 351°
2026-04-27 12:29 18.30719 109.40343 100 ft 2 kts 346°
2026-04-27 12:29 18.30704 109.40348 100 ft 2 kts 339°
2026-04-27 12:29 18.30689 109.40355 100 ft 2 kts 326°
2026-04-27 12:29 18.30678 109.40365 100 ft 2 kts 300°
2026-04-27 12:30 18.30674 109.40378 100 ft 2 kts 263°
2026-04-27 12:30 18.30676 109.40393 100 ft 2 kts 262°
2026-04-27 12:32 18.30675 109.40390 100 ft 1 kts 262°
2026-04-27 12:32 18.30672 109.40369 100 ft 5 kts 262°
2026-04-27 12:32 18.30667 109.40326 100 ft 7 kts 262°
2026-04-27 12:33 18.30660 109.40268 100 ft 8 kts 262°
2026-04-27 12:33 18.30627 109.40229 100 ft 8 kts 182°
2026-04-27 12:33 18.30572 109.40235 100 ft 8 kts 172°
2026-04-27 12:33 18.30511 109.40244 100 ft 9 kts 172°
2026-04-27 12:34 18.30442 109.40253 100 ft 10 kts 174°
2026-04-27 12:34 18.30403 109.40202 100 ft 11 kts 261°
2026-04-27 12:34 18.30392 109.40117 100 ft 12 kts 262°
2026-04-27 12:34 18.30380 109.40024 100 ft 14 kts 262°
2026-04-27 12:35 18.30367 109.39921 100 ft 15 kts 262°
2026-04-27 12:35 18.30354 109.39814 100 ft 15 kts 263°
2026-04-27 12:35 18.30341 109.39713 100 ft 13 kts 262°
2026-04-27 12:35 18.30328 109.39633 100 ft 9 kts 237°
2026-04-27 12:36 18.30283 109.39621 100 ft 6 kts 174°
2026-04-27 12:36 18.30233 109.39627 100 ft 9 kts 173°
2026-04-27 12:36 18.30194 109.39633 100 ft 1 kts 173°
2026-04-27 12:36 18.30193 109.39633 100 ft 0 kts 173°
2026-04-27 12:37 18.30184 109.39634 100 ft 4 kts 173°
2026-04-27 12:37 18.30144 109.39640 100 ft 8 kts 172°
2026-04-27 12:37 18.30094 109.39653 100 ft 7 kts 129°
2026-04-27 12:38 18.30093 109.39698 100 ft 6 kts 82°
2026-04-27 12:38 18.30094 109.39707 100 ft 0 kts 82°
2026-04-27 12:38 18.30095 109.39710 100 ft 1 kts 82°
2026-04-27 12:38 18.30105 109.39787 100 ft 28 kts 82°
2026-04-27 12:39 18.30157 109.40187 100 ft 82 kts 82°
2026-04-27 12:39 18.30258 109.40960 100 ft 130 kts 82°
2026-04-27 12:39 18.30395 109.42026 165 ft 163 kts 83°
2026-04-27 12:39 18.30552 109.43241 607 ft 171 kts 83°
2026-04-27 12:40 18.30712 109.44470 1185 ft 169 kts 83°
2026-04-27 12:40 18.30874 109.45708 1648 ft 172 kts 83°
2026-04-27 12:40 18.31034 109.46931 2256 ft 167 kts 86°
2026-04-27 12:40 18.31196 109.48170 2690 ft 173 kts 86°
2026-04-27 12:41 18.31385 109.49416 3229 ft 175 kts 80°
2026-04-27 12:41 18.32061 109.50567 3505 ft 198 kts 48°
2026-04-27 12:41 18.33242 109.51440 3792 ft 218 kts 32°
2026-04-27 12:41 18.34577 109.52277 4037 ft 237 kts 33°
2026-04-27 12:42 18.36049 109.53206 4281 ft 257 kts 33°
2026-04-27 12:42 18.37608 109.54192 4840 ft 261 kts 32°
2026-04-27 12:42 18.39166 109.55176 5522 ft 264 kts 32°
2026-04-27 12:42 18.40751 109.56177 6148 ft 267 kts 31°
2026-04-27 12:43 18.42354 109.57189 6783 ft 270 kts 31°
2026-04-27 12:43 18.43976 109.58215 7435 ft 273 kts 31°
2026-04-27 12:43 18.45611 109.59246 8085 ft 275 kts 30°
2026-04-27 12:43 18.47242 109.60276 8698 ft 279 kts 30°
2026-04-27 12:44 18.48915 109.61329 9340 ft 282 kts 29°
2026-04-27 12:44 18.50679 109.62301 9843 ft 291 kts 24°
2026-04-27 12:44 18.52537 109.63196 10420 ft 296 kts 22°
2026-04-27 12:44 18.54456 109.64078 10885 ft 308 kts 22°
2026-04-27 12:45 18.56476 109.65015 11150 ft 326 kts 22°
2026-04-27 12:45 18.58604 109.66014 11397 ft 344 kts 22°
2026-04-27 12:45 18.60841 109.67071 11631 ft 360 kts 22°
2026-04-27 12:45 18.63176 109.68182 11888 ft 375 kts 22°
2026-04-27 12:46 18.65540 109.69310 12352 ft 381 kts 22°
2026-04-27 12:46 18.67970 109.70473 12911 ft 386 kts 22°
2026-04-27 12:46 18.70424 109.71649 13485 ft 389 kts 22°
2026-04-27 12:46 18.72900 109.72838 14047 ft 393 kts 21°
2026-04-27 12:47 18.75455 109.73875 14608 ft 395 kts 15°
2026-04-27 12:47 18.78115 109.74623 15164 ft 396 kts
2026-04-27 12:47 18.80838 109.75104 15721 ft 398 kts
2026-04-27 12:47 18.83592 109.75470 16262 ft 401 kts
2026-04-27 12:48 18.86335 109.75820 16802 ft 404 kts
2026-04-27 12:48 18.89134 109.76187 17320 ft 407 kts
2026-04-27 12:48 18.91954 109.76565 17815 ft 410 kts
2026-04-27 12:48 18.94797 109.76953 18300 ft 414 kts
2026-04-27 12:49 18.97665 109.77349 18801 ft 416 kts
2026-04-27 12:49 19.00543 109.77750 19253 ft 420 kts
2026-04-27 12:49 19.03443 109.78155 19722 ft 422 kts
2026-04-27 12:49 19.06365 109.78565 20162 ft 424 kts
2026-04-27 12:50 19.09303 109.78977 20591 ft 427 kts
2026-04-27 12:50 19.12219 109.79388 20989 ft 430 kts
2026-04-27 12:50 19.15195 109.79808 21381 ft 433 kts
2026-04-27 12:50 19.18189 109.80231 21765 ft 435 kts
2026-04-27 12:51 19.21196 109.80657 22155 ft 437 kts
2026-04-27 12:51 19.24222 109.81086 22509 ft 440 kts
2026-04-27 12:51 19.26236 109.81372 22742 ft 441 kts
2026-04-27 12:51 19.30317 109.81952 23211 ft 444 kts
2026-04-27 12:52 19.33388 109.82389 23563 ft 445 kts
2026-04-27 12:52 19.35411 109.82737 23899 ft 445 kts
2026-04-27 12:52 19.39396 109.83804 24398 ft 448 kts 13°
2026-04-27 12:52 19.42334 109.84976 24740 ft 452 kts 18°
2026-04-27 12:53 19.47124 109.87297 25488 ft 461 kts 20°
2026-04-27 12:53 19.50060 109.88747 25888 ft 467 kts 21°
2026-04-27 12:53 19.53990 109.90684 26262 ft 466 kts 20°
2026-04-27 12:54 19.56942 109.92130 26519 ft 466 kts 20°
2026-04-27 12:54 19.58894 109.93083 26674 ft 469 kts 20°
2026-04-27 12:54 19.62853 109.95002 26863 ft 474 kts 20°
2026-04-27 12:54 19.64885 109.95994 26996 ft 477 kts 20°
2026-04-27 12:55 19.67905 109.97451 27246 ft 478 kts 20°
2026-04-27 12:55 19.70925 109.98912 27614 ft 476 kts 20°
2026-04-27 12:55 19.74948 110.00841 27777 ft 482 kts 20°
2026-04-27 12:55 19.76966 110.01811 27925 ft 482 kts 20°
2026-04-27 12:56 19.80031 110.03288 28141 ft 484 kts 20°
2026-04-27 12:56 19.83101 110.04769 28365 ft 485 kts 20°
2026-04-27 12:56 19.86175 110.06253 28577 ft 486 kts 20°
2026-04-27 12:56 19.89260 110.07744 28766 ft 488 kts 20°
2026-04-27 12:57 19.93351 110.09722 29150 ft 487 kts 20°
2026-04-27 12:57 19.95457 110.10596 29343 ft 481 kts 12°
2026-04-27 12:57 19.98673 110.11178 29651 ft 469 kts 357°
2026-04-27 12:57 20.01876 110.10891 29935 ft 458 kts 343°
2026-04-27 12:58 20.04840 110.09762 30221 ft 449 kts 329°
2026-04-27 12:58 20.07454 110.08028 30726 ft 440 kts 322°
2026-04-27 12:58 20.09930 110.06134 31070 ft 437 kts 320°
2026-04-27 12:58 20.12342 110.04159 31320 ft 437 kts 319°
2026-04-27 12:59 20.14722 110.02151 31659 ft 435 kts 318°
2026-04-27 12:59 20.17074 110.00149 32066 ft 432 kts 318°
2026-04-27 12:59 20.19405 109.98154 32441 ft 429 kts 318°
2026-04-27 12:59 20.21700 109.96181 32773 ft 428 kts 318°
2026-04-27 13:00 20.23991 109.94213 33509 ft 422 kts 318°
2026-04-27 13:00 20.26260 109.92267 34253 ft 414 kts 317°
2026-04-27 13:00 20.28503 109.90340 34971 ft 414 kts 317°
2026-04-27 13:00 20.30733 109.88417 35174 ft 411 kts 318°
2026-04-27 13:01 20.32941 109.86496 35275 ft 410 kts 317°
2026-04-27 13:01 20.35154 109.84576 35295 ft 411 kts 317°
2026-04-27 13:01 20.39624 109.80692 35373 ft 418 kts 317°
2026-04-27 13:02 20.41885 109.78727 35478 ft 421 kts 317°
2026-04-27 13:02 20.44126 109.76778 35662 ft 422 kts 317°
2026-04-27 13:02 20.46409 109.74798 35898 ft 423 kts 319°
2026-04-27 13:02 20.48886 109.73067 35969 ft 431 kts 328°
2026-04-27 13:03 20.54631 109.71060 35978 ft 440 kts 344°
2026-04-27 13:03 20.60692 109.70103 35979 ft 441 kts 347°
2026-04-27 13:04 20.66784 109.69238 35979 ft 442 kts 347°
2026-04-27 13:04 20.72837 109.68372 35979 ft 442 kts 347°
2026-04-27 13:05 20.78939 109.67494 35979 ft 442 kts 347°
2026-04-27 13:05 20.85031 109.66616 35980 ft 442 kts 347°
2026-04-27 13:06 20.91129 109.65737 35980 ft 443 kts 347°
2026-04-27 13:06 20.97191 109.64861 35979 ft 442 kts 347°
2026-04-27 13:07 21.03295 109.63980 35977 ft 443 kts 347°
2026-04-27 13:07 21.09397 109.63096 35973 ft 442 kts 347°
2026-04-27 13:08 21.15496 109.62212 35972 ft 442 kts 347°
2026-04-27 13:08 21.21550 109.61332 35973 ft 443 kts 347°
2026-04-27 13:09 21.27654 109.60422 35970 ft 441 kts 345°
2026-04-27 13:09 21.33441 109.58502 35969 ft 432 kts 331°
2026-04-27 13:10 21.38735 109.55520 35967 ft 429 kts 326°
2026-04-27 13:10 21.43902 109.52319 35966 ft 430 kts 326°
2026-04-27 13:11 21.49050 109.49129 35966 ft 430 kts 326°
2026-04-27 13:11 21.54233 109.45917 35965 ft 430 kts 326°
2026-04-27 13:12 21.59770 109.43392 35964 ft 438 kts 340°
2026-04-27 13:12 21.65819 109.42226 35964 ft 444 kts 348°
2026-04-27 13:13 21.72005 109.41433 35963 ft 444 kts 348°
2026-04-27 13:13 21.78037 109.40658 35962 ft 443 kts 348°
2026-04-27 13:14 21.84161 109.39868 35962 ft 443 kts 348°
2026-04-27 13:14 21.90286 109.39075 35961 ft 443 kts 348°
2026-04-27 13:15 21.96368 109.38289 35960 ft 443 kts 348°
2026-04-27 13:15 22.02495 109.37497 35960 ft 444 kts 348°
2026-04-27 13:16 22.08644 109.36698 35973 ft 445 kts 348°
2026-04-27 13:16 22.14794 109.35898 35976 ft 445 kts 348°
2026-04-27 13:17 22.20893 109.35104 35976 ft 445 kts 348°
2026-04-27 13:17 22.27077 109.34547 35976 ft 450 kts 355°
2026-04-27 13:18 22.33351 109.35174 35976 ft 456 kts
2026-04-27 13:18 22.39600 109.36405 35976 ft 457 kts
2026-04-27 13:19 22.45856 109.37644 35976 ft 457 kts
2026-04-27 13:19 22.52071 109.38870 35976 ft 457 kts
2026-04-27 13:20 22.58326 109.40104 35975 ft 457 kts
2026-04-27 13:20 22.64585 109.41339 35976 ft 457 kts
2026-04-27 13:21 22.70838 109.42572 35976 ft 457 kts
2026-04-27 13:21 22.77098 109.43809 35976 ft 457 kts
2026-04-27 13:22 22.83310 109.45037 35977 ft 457 kts
2026-04-27 13:22 22.89570 109.46277 35981 ft 457 kts
2026-04-27 13:23 22.95822 109.47516 35981 ft 457 kts
2026-04-27 13:23 23.02085 109.48760 35981 ft 457 kts
2026-04-27 13:24 23.08291 109.49990 35981 ft 456 kts
2026-04-27 13:24 23.14543 109.51231 35981 ft 457 kts
2026-04-27 13:25 23.20796 109.52473 35982 ft 457 kts
2026-04-27 13:25 23.27042 109.53716 35982 ft 456 kts
2026-04-27 13:26 23.33238 109.54951 35982 ft 456 kts
2026-04-27 13:26 23.39479 109.56193 35983 ft 456 kts
2026-04-27 13:27 23.45722 109.57439 35983 ft 456 kts
2026-04-27 13:27 23.51943 109.58683 35983 ft 455 kts
2026-04-27 13:28 23.58133 109.59923 35986 ft 455 kts
2026-04-27 13:28 23.64354 109.61169 35987 ft 455 kts
2026-04-27 13:29 23.70574 109.62415 35987 ft 454 kts
2026-04-27 13:29 23.76780 109.63659 35987 ft 454 kts
2026-04-27 13:30 23.82985 109.64904 35987 ft 453 kts
2026-04-27 13:30 23.89152 109.66143 35987 ft 453 kts
2026-04-27 13:31 23.95352 109.67390 35987 ft 453 kts
2026-04-27 13:31 24.01555 109.68638 35987 ft 453 kts
2026-04-27 13:32 24.07756 109.69884 35987 ft 453 kts
2026-04-27 13:32 24.13961 109.71133 35987 ft 453 kts
2026-04-27 13:33 24.20113 109.72374 35986 ft 453 kts
2026-04-27 13:33 24.26322 109.73627 35986 ft 454 kts
2026-04-27 13:34 24.32525 109.74881 35986 ft 454 kts
2026-04-27 13:34 24.38729 109.76135 35985 ft 454 kts
2026-04-27 13:35 24.44908 109.77385 35985 ft 455 kts
2026-04-27 13:35 24.51133 109.78648 35984 ft 454 kts
2026-04-27 13:36 24.57354 109.79913 35983 ft 455 kts
2026-04-27 13:36 24.63584 109.81200 35980 ft 457 kts
2026-04-27 13:37 24.69549 109.83574 35982 ft 465 kts 23°
2026-04-27 13:37 24.75082 109.87354 35981 ft 470 kts 30°
2026-04-27 13:38 24.80483 109.91414 35980 ft 470 kts 30°
2026-04-27 13:38 24.85889 109.95453 35979 ft 470 kts 30°
2026-04-27 13:39 24.91265 109.99461 35979 ft 470 kts 30°
2026-04-27 13:39 24.96703 110.03494 35978 ft 472 kts 30°
2026-04-27 13:40 25.02150 110.07540 35977 ft 472 kts 30°
2026-04-27 13:40 25.07589 110.11594 35977 ft 472 kts 30°
2026-04-27 13:41 25.13066 110.15592 35967 ft 470 kts 24°
2026-04-27 13:41 25.16037 110.16865 35972 ft 461 kts
2026-04-27 13:41 25.19179 110.17255 35976 ft 452 kts 354°
2026-04-27 13:42 25.22246 110.16732 35976 ft 443 kts 339°
2026-04-27 13:42 25.25027 110.15348 35977 ft 435 kts 324°
2026-04-27 13:42 25.29732 110.11214 35977 ft 432 kts 316°
2026-04-27 13:43 25.34166 110.06732 35977 ft 431 kts 314°
2026-04-27 13:43 25.38540 110.02208 35976 ft 431 kts 314°
2026-04-27 13:44 25.42871 109.97686 35977 ft 431 kts 314°
2026-04-27 13:44 25.47223 109.93131 35977 ft 430 kts 314°
2026-04-27 13:45 25.51563 109.88580 35978 ft 430 kts 314°
2026-04-27 13:45 25.55873 109.84055 35979 ft 429 kts 314°
2026-04-27 13:46 25.60206 109.79495 35979 ft 430 kts 314°
2026-04-27 13:46 25.64528 109.74928 35980 ft 429 kts 314°
2026-04-27 13:47 25.68847 109.70355 35981 ft 429 kts 314°
2026-04-27 13:47 25.73140 109.65804 35983 ft 429 kts 314°
2026-04-27 13:48 25.76960 109.60787 35983 ft 425 kts 298°
2026-04-27 13:48 25.79245 109.54755 35986 ft 424 kts 288°
2026-04-27 13:49 25.80955 109.48481 35987 ft 425 kts 286°
2026-04-27 13:49 25.82615 109.42187 35989 ft 425 kts 286°
2026-04-27 13:50 25.84277 109.35921 35991 ft 426 kts 286°
2026-04-27 13:50 25.85947 109.29606 35993 ft 427 kts 285°
2026-04-27 13:51 25.87605 109.23274 35995 ft 427 kts 285°
2026-04-27 13:51 25.89255 109.16937 35997 ft 427 kts 285°
2026-04-27 13:52 25.90903 109.10597 36000 ft 428 kts 285°
2026-04-27 13:52 25.92544 109.04283 36002 ft 428 kts 285°
2026-04-27 13:53 25.95092 108.94765 36006 ft 429 kts 285°
2026-04-27 13:54 25.96780 108.88398 36009 ft 430 kts 285°
2026-04-27 13:54 25.98466 108.82016 36011 ft 431 kts 285°
2026-04-27 13:55 26.00144 108.75658 36014 ft 431 kts 285°
2026-04-27 13:55 26.01846 108.69270 36018 ft 431 kts 285°
2026-04-27 13:56 26.03551 108.62881 36021 ft 431 kts 285°
2026-04-27 13:56 26.05246 108.56486 36024 ft 431 kts 285°
2026-04-27 13:57 26.06926 108.50124 35997 ft 433 kts 285°
2026-04-27 13:57 26.07773 108.46912 35606 ft 431 kts 285°
2026-04-27 13:57 26.08614 108.43719 34943 ft 430 kts 285°
2026-04-27 13:57 26.09421 108.40517 34233 ft 430 kts 282°
2026-04-27 13:58 26.09976 108.37245 33515 ft 431 kts 278°
2026-04-27 13:58 26.10383 108.33941 32787 ft 432 kts 277°
2026-04-27 13:58 26.10763 108.30623 32046 ft 433 kts 277°
2026-04-27 13:58 26.11145 108.27306 31478 ft 430 kts 277°
2026-04-27 13:59 26.11519 108.24063 30943 ft 427 kts 277°
2026-04-27 13:59 26.11897 108.20800 30407 ft 423 kts 277°
2026-04-27 13:59 26.12277 108.17565 29882 ft 420 kts 277°
2026-04-27 13:59 26.12665 108.14352 29367 ft 417 kts 277°
2026-04-27 14:00 26.13044 108.11164 28859 ft 414 kts 277°
2026-04-27 14:00 26.13415 108.08005 28358 ft 411 kts 277°
2026-04-27 14:00 26.13781 108.04860 27858 ft 408 kts 277°
2026-04-27 14:00 26.14142 108.01746 27363 ft 405 kts 277°
2026-04-27 14:01 26.14499 107.98647 26867 ft 402 kts 276°
2026-04-27 14:01 26.14853 107.95569 26376 ft 400 kts 276°
2026-04-27 14:01 26.15199 107.92554 25894 ft 397 kts 276°
2026-04-27 14:01 26.15548 107.89509 25405 ft 395 kts 276°
2026-04-27 14:02 26.15895 107.86483 24919 ft 393 kts 276°
2026-04-27 14:02 26.16239 107.83479 24434 ft 390 kts 276°
2026-04-27 14:02 26.16588 107.80496 23952 ft 388 kts 276°
2026-04-27 14:02 26.16934 107.77518 23470 ft 386 kts 276°
2026-04-27 14:03 26.17275 107.74556 22989 ft 385 kts 276°
2026-04-27 14:03 26.17612 107.71613 22510 ft 383 kts 276°
2026-04-27 14:03 26.17945 107.68684 22032 ft 381 kts 276°
2026-04-27 14:03 26.18273 107.65795 21560 ft 380 kts 277°
2026-04-27 14:04 26.18602 107.62891 21085 ft 378 kts 277°
2026-04-27 14:04 26.18932 107.59987 20610 ft 377 kts 277°
2026-04-27 14:04 26.19257 107.57100 20139 ft 375 kts 277°
2026-04-27 14:04 26.19583 107.54224 19669 ft 374 kts 277°
2026-04-27 14:05 26.19913 107.51350 19198 ft 373 kts 277°
2026-04-27 14:05 26.20241 107.48491 18730 ft 372 kts 277°
2026-04-27 14:05 26.20565 107.45637 18265 ft 371 kts 277°
2026-04-27 14:05 26.20885 107.42789 17799 ft 370 kts 277°
2026-04-27 14:06 26.21198 107.39989 17341 ft 369 kts 277°
2026-04-27 14:06 26.21512 107.37155 16882 ft 368 kts 277°
2026-04-27 14:06 26.21825 107.34329 16421 ft 367 kts 276°
2026-04-27 14:06 26.22137 107.31507 15960 ft 367 kts 276°
2026-04-27 14:07 26.22446 107.28700 15501 ft 362 kts 276°
2026-04-27 14:07 26.22748 107.25949 15054 ft 354 kts 276°
2026-04-27 14:07 26.23045 107.23248 14616 ft 348 kts 276°
2026-04-27 14:07 26.23337 107.20599 14186 ft 342 kts 276°
2026-04-27 14:08 26.23616 107.18037 13879 ft 333 kts 276°
2026-04-27 14:08 26.23897 107.15537 13697 ft 318 kts 276°
2026-04-27 14:08 26.24163 107.13151 13526 ft 304 kts 276°
2026-04-27 14:08 26.24415 107.10861 13363 ft 291 kts 276°
2026-04-27 14:09 26.24625 107.08664 13184 ft 280 kts 271°
2026-04-27 14:09 26.24446 107.06528 12778 ft 277 kts 257°
2026-04-27 14:09 26.23837 107.04462 12067 ft 287 kts 249°
2026-04-27 14:09 26.23129 107.02354 11453 ft 293 kts 249°
2026-04-27 14:10 26.22411 107.00237 11036 ft 290 kts 249°
2026-04-27 14:10 26.21717 106.98194 10839 ft 283 kts 249°
2026-04-27 14:10 26.21029 106.96171 10683 ft 277 kts 249°
2026-04-27 14:10 26.20345 106.94160 10528 ft 279 kts 249°
2026-04-27 14:11 26.19653 106.92127 10372 ft 282 kts 249°
2026-04-27 14:11 26.18953 106.90073 10212 ft 284 kts 249°
2026-04-27 14:11 26.18271 106.88003 10050 ft 285 kts 253°
2026-04-27 14:11 26.17930 106.85840 9783 ft 285 kts 270°
2026-04-27 14:12 26.18187 106.83668 9512 ft 283 kts 284°
2026-04-27 14:12 26.18680 106.81545 9222 ft 284 kts 285°
2026-04-27 14:12 26.19100 106.79390 8925 ft 286 kts 283°
2026-04-27 14:12 26.19530 106.77268 8718 ft 281 kts 293°
2026-04-27 14:13 26.20633 106.75594 8604 ft 262 kts 326°
2026-04-27 14:13 26.22248 106.74899 8493 ft 243 kts 354°
2026-04-27 14:13 26.23895 106.74875 8308 ft 233 kts
2026-04-27 14:13 26.25507 106.74989 7982 ft 232 kts
2026-04-27 14:14 26.27107 106.75124 7647 ft 230 kts
2026-04-27 14:14 26.28684 106.75326 7477 ft 227 kts
2026-04-27 14:14 26.30214 106.75581 7383 ft 217 kts 10°
2026-04-27 14:14 26.31680 106.75846 7261 ft 211 kts 10°
2026-04-27 14:15 26.33091 106.76111 7147 ft 207 kts 11°
2026-04-27 14:15 26.34501 106.76379 7037 ft 205 kts 11°
2026-04-27 14:15 26.35906 106.76649 6942 ft 205 kts 11°
2026-04-27 14:15 26.37327 106.76923 6712 ft 210 kts 11°
2026-04-27 14:16 26.38762 106.77201 6449 ft 206 kts 11°
2026-04-27 14:16 26.40149 106.77470 6174 ft 198 kts 11°
2026-04-27 14:16 26.41479 106.77728 5905 ft 190 kts 11°
2026-04-27 14:16 26.42745 106.77973 5668 ft 179 kts 11°
2026-04-27 14:17 26.43935 106.78204 5450 ft 168 kts 10°
2026-04-27 14:17 26.45052 106.78421 5216 ft 162 kts 10°
2026-04-27 14:17 26.46143 106.78632 4998 ft 157 kts 10°
2026-04-27 14:17 26.47208 106.78839 4793 ft 154 kts 10°
2026-04-27 14:18 26.48254 106.79041 4584 ft 151 kts
2026-04-27 14:18 26.49273 106.79237 4387 ft 147 kts 10°
2026-04-27 14:18 26.50285 106.79440 4177 ft 148 kts
2026-04-27 14:18 26.51287 106.79632 3991 ft 145 kts 10°
2026-04-27 14:19 26.52275 106.79825 3792 ft 143 kts
2026-04-27 14:19 26.53222 106.80013 3745 ft 126 kts
2026-04-27 14:19 26.53817 106.80122 3745 ft 57 kts 11°
2026-04-27 14:19 26.54044 106.80167 3745 ft 16 kts
2026-04-27 14:20 26.54131 106.80184 3745 ft 10 kts
2026-04-27 14:20 26.54184 106.80189 3745 ft 7 kts 351°
2026-04-27 14:20 26.54217 106.80154 3745 ft 8 kts 268°
2026-04-27 14:20 26.54221 106.80082 3745 ft 10 kts 277°
2026-04-27 14:21 26.54232 106.80007 3745 ft 9 kts 279°
2026-04-27 14:21 26.54242 106.79941 3745 ft 8 kts 279°
2026-04-27 14:21 26.54251 106.79887 3745 ft 6 kts 279°
2026-04-27 14:21 26.54258 106.79842 3745 ft 5 kts 280°
2026-04-27 14:22 26.54274 106.79818 3745 ft 4 kts 339°
2026-04-27 14:22 26.54297 106.79816 3745 ft 3 kts
2026-04-27 14:22 26.54315 106.79818 3745 ft 2 kts
2026-04-27 14:22 26.54330 106.79821 3745 ft 1 kts
2026-04-27 14:23 26.54331 106.79821 3745 ft 0 kts